TimeCDT,TemperatureF,Dew PointF,Humidity,Sea Level PressureIn,VisibilityMPH,Wind Direction,Wind SpeedMPH,Gust SpeedMPH,PrecipitationIn,Events,Conditions,WindDirDegrees,DateUTC
12:46 AM,30.2,28.4,93,29.87,3.0,ESE,12.7,-,0.04,Rain,Light Freezing Rain,110,2013-03-22 05:46:00
12:53 AM,30.0,28.9,96,29.90,5.0,ESE,8.1,-,0.04,Rain,Light Freezing Rain,120,2013-03-22 05:53:00
1:53 AM,30.9,28.9,92,29.89,7.0,Variable,4.6,-,0.03,Rain,Light Freezing Rain,0,2013-03-22 06:53:00
2:10 AM,30.2,30.2,100,29.86,7.0,ESE,6.9,-,0.00,,Overcast,120,2013-03-22 07:10:00
2:39 AM,30.2,30.2,100,29.87,6.0,East,3.5,-,0.00,Rain,Light Freezing Rain,90,2013-03-22 07:39:00
2:53 AM,30.9,30.0,96,29.90,4.0,SE,6.9,-,0.04,Rain,Light Freezing Rain,140,2013-03-22 07:53:00
3:12 AM,30.2,30.2,100,29.87,5.0,SE,10.4,-,0.03,Rain,Light Freezing Rain,140,2013-03-22 08:12:00
3:34 AM,30.2,30.2,100,29.86,4.0,ESE,10.4,-,0.06,Rain,Light Freezing Rain,120,2013-03-22 08:34:00
3:53 AM,30.9,30.0,96,29.90,4.0,SE,8.1,-,0.11,Rain,Light Freezing Rain,130,2013-03-22 08:53:00
4:19 AM,30.2,30.2,100,29.85,5.0,ESE,10.4,-,0.04,Rain,Light Freezing Rain,120,2013-03-22 09:19:00
4:32 AM,30.2,30.2,100,29.85,5.0,SE,10.4,-,0.07,Rain,Light Freezing Rain,130,2013-03-22 09:32:00
4:53 AM,32.0,30.9,96,29.89,5.0,ESE,6.9,-,0.09,Rain,Light Freezing Rain,110,2013-03-22 09:53:00
5:04 AM,32.0,30.2,93,29.86,8.0,ESE,8.1,-,0.01,Rain,Light Freezing Rain,120,2013-03-22 10:04:00
5:42 AM,32.0,30.2,93,29.86,10.0,East,9.2,-,0.01,,Overcast,100,2013-03-22 10:42:00
5:53 AM,32.0,30.9,96,29.89,8.0,East,8.1,-,0.01,,Overcast,100,2013-03-22 10:53:00
6:28 AM,32.0,30.2,93,29.88,2.0,ESE,8.1,-,N/A,,Overcast,110,2013-03-22 11:28:00
6:35 AM,32.0,30.2,93,29.89,1.2,ESE,5.8,-,N/A,,Overcast,120,2013-03-22 11:35:00
6:43 AM,32.0,30.2,93,29.89,0.8,East,8.1,-,N/A,,Mist,100,2013-03-22 11:43:00
6:53 AM,32.0,30.9,96,29.93,0.5,ESE,5.8,-,N/A,Fog,Fog,110,2013-03-22 11:53:00
7:12 AM,32.0,30.2,93,29.90,0.8,East,6.9,-,N/A,,Mist,100,2013-03-22 12:12:00
7:34 AM,32.0,30.2,93,29.91,0.5,East,6.9,-,N/A,Fog,Fog,100,2013-03-22 12:34:00
7:42 AM,32.0,30.2,93,29.91,0.2,ESE,6.9,-,N/A,Fog,Fog,110,2013-03-22 12:42:00
7:53 AM,32.0,30.9,96,29.93,0.2,ESE,10.4,-,N/A,Fog,Fog,110,2013-03-22 12:53:00
8:53 AM,32.0,30.9,96,29.94,0.2,ESE,9.2,-,N/A,Fog,Fog,110,2013-03-22 13:53:00
9:53 AM,30.9,30.9,100,29.95,0.2,ESE,10.4,-,N/A,Fog,Light Freezing Fog,120,2013-03-22 14:53:00
10:53 AM,30.9,30.9,100,29.95,0.2,ESE,10.4,-,N/A,Fog,Light Freezing Fog,110,2013-03-22 15:53:00
11:53 AM,32.0,32.0,100,29.95,0.2,SE,8.1,-,N/A,Fog,Fog,130,2013-03-22 16:53:00
12:53 PM,32.0,32.0,100,29.93,0.2,ESE,10.4,-,N/A,Fog,Fog,110,2013-03-22 17:53:00
1:53 PM,32.0,32.0,100,29.93,0.2,ESE,6.9,-,N/A,Fog,Fog,110,2013-03-22 18:53:00
2:03 PM,32.0,32.0,100,29.90,0.5,East,5.8,-,N/A,Fog,Fog,100,2013-03-22 19:03:00
2:13 PM,32.0,32.0,100,29.90,0.2,ENE,4.6,-,N/A,Fog,Fog,70,2013-03-22 19:13:00
2:35 PM,32.0,32.0,100,29.90,0.5,NE,3.5,-,N/A,Fog,Fog,50,2013-03-22 19:35:00
2:53 PM,32.0,32.0,100,29.92,0.5,East,5.8,-,N/A,Fog,Fog,90,2013-03-22 19:53:00
3:18 PM,33.8,33.8,100,29.89,0.2,ESE,4.6,-,N/A,Fog,Fog,110,2013-03-22 20:18:00
3:53 PM,33.1,32.0,96,29.92,0.2,ENE,5.8,-,N/A,Fog,Fog,70,2013-03-22 20:53:00
4:32 PM,33.8,33.8,100,29.89,0.5,East,4.6,-,N/A,Fog,Fog,100,2013-03-22 21:32:00
4:53 PM,34.0,33.1,96,29.92,0.2,ENE,3.5,-,N/A,Fog,Fog,70,2013-03-22 21:53:00
5:06 PM,33.8,33.8,100,29.89,0.5,ENE,5.8,-,N/A,Fog,Fog,70,2013-03-22 22:06:00
5:53 PM,34.0,33.1,96,29.93,0.5,ENE,4.6,-,N/A,Fog,Fog,70,2013-03-22 22:53:00
6:05 PM,33.8,33.8,100,29.90,0.8,East,5.8,-,N/A,,Overcast,100,2013-03-22 23:05:00
6:15 PM,33.8,33.8,100,29.91,0.5,East,3.5,-,N/A,Fog,Fog,100,2013-03-22 23:15:00
6:33 PM,33.8,33.8,100,29.90,0.2,East,4.6,-,N/A,Fog,Fog,80,2013-03-22 23:33:00
6:53 PM,34.0,34.0,100,29.93,0.2,East,4.6,-,N/A,Fog,Fog,90,2013-03-22 23:53:00
7:12 PM,33.8,33.8,100,29.91,0.8,SE,5.8,-,N/A,,Overcast,130,2013-03-23 00:12:00
7:35 PM,33.8,33.8,100,29.91,0.5,ESE,5.8,-,N/A,Fog,Fog,110,2013-03-23 00:35:00
7:42 PM,33.8,33.8,100,29.91,0.2,East,6.9,-,N/A,Fog,Fog,90,2013-03-23 00:42:00
7:53 PM,34.0,34.0,100,29.95,0.2,ESE,5.8,-,N/A,Fog,Fog,110,2013-03-23 00:53:00
8:53 PM,34.0,34.0,100,29.95,0.2,ESE,5.8,-,N/A,Fog,Fog,110,2013-03-23 01:53:00
9:03 PM,33.8,33.8,100,29.92,0.5,ESE,6.9,-,N/A,Fog,Fog,120,2013-03-23 02:03:00
9:07 PM,33.8,33.8,100,29.92,1.0,SE,8.1,-,N/A,,Mist,130,2013-03-23 02:07:00
9:24 PM,33.8,33.8,100,29.93,2.0,ESE,5.8,-,N/A,,Overcast,110,2013-03-23 02:24:00
9:46 PM,33.8,33.8,100,29.93,1.5,ESE,8.1,-,N/A,,Overcast,110,2013-03-23 02:46:00
9:53 PM,34.0,33.1,96,29.96,1.0,ESE,8.1,-,N/A,,Overcast,120,2013-03-23 02:53:00
10:02 PM,33.8,33.8,100,29.92,0.8,East,9.2,-,N/A,,Mist,90,2013-03-23 03:02:00
10:13 PM,33.8,33.8,100,29.92,0.5,East,10.4,-,N/A,Fog,Fog,100,2013-03-23 03:13:00
10:30 PM,33.8,33.8,100,29.93,0.2,ESE,8.1,-,N/A,Fog,Fog,120,2013-03-23 03:30:00
10:53 PM,34.0,34.0,100,29.98,0.2,SE,6.9,-,N/A,Fog,Fog,140,2013-03-23 03:53:00
11:21 PM,33.8,33.8,100,29.95,0.5,SE,6.9,-,N/A,Fog,Fog,140,2013-03-23 04:21:00
11:39 PM,33.8,33.8,100,29.95,0.2,SE,6.9,-,N/A,Fog,Fog,140,2013-03-23 04:39:00
11:53 PM,34.0,34.0,100,29.97,0.5,ESE,8.1,-,N/A,Fog,Fog,120,2013-03-23 04:53:00